GFSCGP_sfc_rhum_081.txt.gz
RH
62 86 89 58 60 55 81 98 96 82 44 45 49 45 36 61 58 54 36 33 41 54 83 88 90 81 73 72 78 83 85 87 84 82 84 87 84 85 84 72 65 65 60 60
67 84 47 53 55 68 79 96 95 76 52 53 42 53 38 57 63 63 59 45 52 86 94 97 95 94 90 88 88 93 90 90 85 84 82 83 83 83 80 74 67 64 64 67
68 53 51 87 99 96 94 83 84 100 73 59 61 91 75 54 56 59 62 60 71 78 94 96 96 95 98 92 96 87 88 92 91 90 91 82 82 88 90 86 81 78 71 73
68 52 81 92 100 96 94 69 89 95 71 86 60 87 88 71 68 80 72 73 80 84 85 89 92 97 98 92 95 96 96 94 93 89 92 90 92 91 93 89 90 88 81 84
92 82 86 94 97 89 96 68 71 85 96 87 78 72 88 89 84 92 88 88 83 84 84 88 91 85 82 82 95 92 90 91 89 88 91 94 94 94 97 99 96 94 92 93
92 59 72 78 66 69 75 81 84 85 95 95 98 75 96 98 96 80 84 84 71 66 83 88 74 64 67 66 66 68 73 81 80 81 87 88 94 96 96 95 98 96 95 96
64 83 80 81 94 80 84 78 97 100 99 98 98 65 96 93 65 78 90 84 76 72 75 85 78 70 67 66 67 72 71 72 75 86 87 85 82 91 92 84 90 88 87 92
99 100 97 82 84 70 86 62 84 94 91 92 67 91 93 87 82 88 80 79 81 78 78 75 65 68 62 63 59 56 56 56 54 58 65 71 84 94 86 84 86 84 86 87
100 100 87 72 58 60 60 66 44 56 45 62 77 87 70 73 84 81 81 79 78 82 77 67 67 50 49 49 50 51 51 53 53 54 54 55 59 72 78 77 84 90 89 93
90 100 81 57 54 50 54 40 63 64 77 74 62 62 68 71 81 81 86 86 80 68 60 56 47 47 47 46 46 44 45 47 48 51 52 53 58 57 59 68 73 73 77 84
57 69 64 53 62 63 53 46 40 41 52 49 56 61 40 48 52 60 64 67 67 63 49 43 40 38 37 38 44 46 47 49 50 47 46 49 52 56 57 56 58 66 71 77
49 54 72 61 48 49 53 40 35 50 53 43 43 56 36 42 44 48 50 48 46 45 44 41 39 37 39 40 40 43 46 47 48 48 47 47 47 51 53 55 55 55 62 69
43 52 81 62 50 43 45 39 35 36 43 47 48 52 35 42 47 45 46 42 42 43 42 40 39 40 42 43 44 45 46 47 48 49 48 48 50 52 50 52 54 54 59 60
52 50 63 65 70 55 52 43 35 43 58 32 41 50 43 46 50 47 43 40 41 42 44 44 42 41 41 45 46 46 48 49 49 50 51 53 54 54 54 54 54 55 54 59
43 70 70 47 48 51 49 47 41 53 36 43 38 41 43 43 45 45 41 40 41 43 45 45 46 44 44 47 48 48 50 50 51 52 54 57 56 55 56 58 58 57 58 58
43 78 60 80 42 46 55 48 44 45 40 36 36 42 34 36 38 44 40 43 45 46 46 46 45 46 47 49 53 54 55 55 52 54 58 60 59 60 63 62 65 62 62 60
49 60 80 70 45 45 48 49 51 53 47 44 40 45 36 46 48 45 42 44 46 47 48 47 46 47 49 51 54 58 57 55 54 58 59 60 64 66 64 63 65 68 67 66
46 52 68 78 54 65 44 43 48 48 49 47 49 47 43 43 46 44 41 43 45 47 47 46 46 49 49 46 50 52 57 55 57 59 59 60 68 73 70 68 71 71 72 72
37 38 52 62 44 38 41 46 46 49 45 44 47 48 47 47 47 48 45 46 47 49 48 49 49 49 44 40 41 46 48 50 51 51 58 62 65 75 77 80 78 77 82 80
42 38 42 41 48 34 40 44 44 46 41 43 45 48 49 48 55 50 47 49 48 50 50 50 49 38 41 34 39 47 46 47 44 47 51 52 60 64 73 76 79 81 85 86
50 47 51 45 48 40 39 44 44 48 47 44 43 45 47 49 48 49 49 49 52 52 49 43 38 39 36 34 39 45 44 45 43 45 46 48 52 60 67 75 78 82 86 89
49 49 45 49 54 52 40 50 49 45 46 43 46 46 48 45 48 50 50 53 51 46 43 38 38 39 37 36 38 42 43 40 35 37 40 44 45 47 50 67 73 75 80 80
47 45 42 43 41 40 39 43 46 45 44 49 47 48 49 51 51 50 53 45 40 40 39 37 36 35 32 31 32 35 34 34 36 37 37 35 36 38 38 41 49 67 79 89
46 46 47 47 38 42 41 40 45 47 47 50 50 50 52 52 48 47 42 40 38 38 40 37 35 34 34 31 30 32 34 34 37 39 38 36 38 40 40 40 46 61 75 85
44 51 46 46 38 43 43 43 43 48 52 53 54 52 52 51 44 41 40 40 40 40 40 40 39 40 39 37 38 35 35 35 39 40 40 40 40 38 41 43 48 55 60 69
44 42 47 34 40 42 47 47 47 51 56 54 53 52 48 49 46 44 45 40 40 40 38 39 40 42 43 43 43 40 38 38 38 40 43 44 47 48 50 54 55 60 70 74

GFSCGP_sfc_rhum_087.txt.gz
RH
82 90 90 90 88 80 86 89 88 71 59 68 85 85 76 50 61 75 74 68 71 66 91 95 97 96 96 95 94 95 94 92 98 97 96 96 97 98 96 86 80 80 78 80
85 91 74 70 70 75 91 97 90 77 64 82 88 89 80 56 62 69 82 88 87 89 95 92 98 98 98 98 97 97 93 91 94 98 95 93 95 97 95 92 89 88 89 89
95 74 67 78 92 93 88 96 90 87 72 84 90 94 81 61 72 73 75 83 87 89 89 92 97 98 96 98 98 96 94 94 96 96 96 96 94 96 96 96 99 98 96 92
90 75 72 78 93 88 99 88 95 93 98 97 88 97 84 89 80 82 93 96 98 94 94 96 96 97 98 98 96 98 98 99 96 96 97 97 97 96 99 99 99 99 97 96
79 90 90 90 96 92 97 84 84 92 95 98 95 100 94 79 87 91 92 95 96 94 94 96 96 94 95 96 97 97 97 99 98 98 98 99 98 99 99 99 98 97 97 97
85 75 82 79 77 73 75 91 94 93 97 100 85 95 96 92 92 86 85 94 92 93 95 94 90 89 94 95 98 97 96 97 96 98 99 99 98 98 99 99 99 98 98 98
82 84 78 80 88 80 88 99 99 99 99 99 92 89 97 90 84 83 91 96 96 94 96 94 94 93 91 93 91 92 93 94 93 95 96 98 97 98 98 97 97 97 98 97
98 94 91 85 88 96 95 98 98 97 98 98 79 97 99 93 88 89 92 94 95 95 92 93 89 87 83 66 64 67 75 75 76 79 88 90 92 98 99 96 98 97 95 96
96 98 82 87 77 73 82 98 88 100 87 97 97 99 96 94 93 90 93 93 96 93 91 88 80 84 72 60 60 60 60 60 60 62 68 71 82 84 84 89 94 99 99 98
90 98 79 71 70 68 68 57 82 96 98 96 97 98 99 100 98 94 93 94 92 88 86 77 71 64 56 55 57 60 61 62 62 61 62 62 68 70 73 81 81 86 91 94
86 94 80 74 72 70 72 72 62 59 77 85 91 97 94 95 94 95 88 85 85 86 73 61 52 51 52 54 56 59 62 62 64 64 64 66 66 66 65 67 68 70 72 76
72 76 93 71 56 57 68 69 58 81 70 82 87 95 71 78 79 76 74 64 53 58 54 52 54 56 59 61 60 63 63 64 66 67 68 70 70 69 69 70 69 67 70 71
64 76 94 79 64 60 64 54 57 59 72 83 91 96 67 63 62 71 66 56 52 53 54 55 57 62 65 66 67 70 71 70 69 69 73 75 74 74 76 76 75 73 73 73
67 72 82 93 80 74 72 63 59 66 86 85 88 91 83 74 68 64 63 62 63 61 60 61 64 66 69 68 72 75 74 72 71 72 78 82 83 82 81 79 79 79 80 80
64 79 81 64 65 64 68 70 68 74 65 78 80 85 80 75 70 66 63 62 62 62 62 62 65 68 72 72 73 74 75 74 74 76 79 82 82 82 85 84 83 83 87 87
65 79 86 75 60 57 65 65 68 68 64 63 64 71 62 69 68 64 64 61 62 63 61 60 62 66 70 75 76 70 76 76 74 78 79 79 82 84 88 88 88 87 89 91
68 85 94 84 68 64 70 65 70 71 68 69 76 74 66 72 61 62 63 60 63 64 62 62 68 71 70 71 63 69 76 73 73 80 78 78 81 84 88 89 90 90 86 84
63 75 94 89 81 77 60 61 61 64 64 66 65 68 68 68 67 66 66 67 65 62 63 66 71 70 63 60 59 61 63 65 65 69 66 69 75 81 86 88 90 87 76 80
61 68 83 85 85 59 61 62 67 71 74 64 68 68 67 63 70 76 67 66 70 70 70 71 73 66 59 56 52 59 64 67 67 66 65 67 71 73 80 82 90 91 90 86
54 61 74 75 70 64 58 64 60 64 78 64 65 68 68 69 85 87 72 64 68 68 68 65 66 54 59 53 50 59 65 69 68 65 66 66 67 70 77 79 87 90 91 92
75 76 77 78 79 65 63 60 60 71 56 62 65 66 67 76 77 74 66 69 67 68 64 59 61 56 55 56 56 59 64 69 65 67 61 61 62 67 70 76 81 84 91 93
73 81 81 78 82 62 60 68 65 59 70 62 70 74 72 70 68 66 65 69 68 65 60 56 58 56 55 56 57 59 63 61 57 54 55 58 61 58 55 70 74 74 77 89
61 63 70 62 65 56 62 68 73 66 64 74 72 74 68 68 69 67 68 58 55 55 54 53 56 56 56 52 51 54 52 50 51 53 55 56 54 53 55 61 64 71 73 85
72 69 66 60 62 62 58 73 66 70 73 69 70 70 70 70 65 61 55 54 54 54 55 55 58 60 61 57 55 57 56 55 56 59 59 60 63 60 61 61 63 73 77 82
65 69 69 71 62 71 68 66 63 66 68 72 70 69 66 63 61 59 59 59 59 58 58 59 62 64 63 61 61 60 59 60 63 63 63 64 61 64 65 68 71 73 75 78
73 72 72 65 59 61 70 67 67 71 72 72 72 69 65 63 62 63 63 62 58 57 57 58 61 63 65 63 63 61 61 63 66 64 59 67 68 72 73 76 71 61 62 64

GFSCGP_sfc_rhum_090.txt.gz
RH
86 94 91 83 89 80 87 96 94 78 64 71 75 75 73 68 72 67 71 76 72 65 55 94 97 95 97 97 98 96 97 95 93 98 97 97 95 94 95 95 90 82 72 72
88 93 74 71 79 88 92 89 88 76 65 74 81 85 72 69 71 66 73 82 86 87 96 95 98 98 93 95 95 97 97 95 93 97 93 94 98 96 93 92 89 80 76 76
96 75 69 78 88 92 87 85 83 98 84 78 80 82 83 73 74 80 88 91 91 92 90 96 97 98 97 97 97 95 94 95 96 97 97 96 98 99 99 99 96 92 87 86
90 75 76 83 93 84 96 73 89 99 97 96 83 96 94 90 87 90 89 97 94 97 98 96 97 96 97 96 95 95 95 97 96 97 99 96 97 96 96 98 99 99 99 98
80 90 90 94 87 83 84 84 93 89 91 96 96 99 85 87 88 92 82 86 90 94 95 97 96 95 93 96 97 96 95 96 97 98 99 99 98 99 98 98 99 99 100 98
82 76 87 80 76 80 74 84 96 96 97 98 91 93 96 96 91 82 80 92 96 94 94 94 92 90 91 93 96 95 94 96 97 97 98 99 99 100 100 100 99 100 100 100
73 78 79 77 91 83 87 99 99 99 99 98 87 89 95 89 82 83 89 94 96 94 93 94 95 94 92 93 92 89 88 92 94 96 96 96 98 99 99 99 99 99 100 99
99 88 89 82 87 96 96 99 99 97 97 98 91 95 96 90 87 89 91 94 93 94 94 95 95 94 92 88 86 86 86 84 80 84 91 92 92 97 98 98 99 99 98 98
98 92 85 87 79 85 93 100 92 100 91 96 97 100 97 95 89 89 92 94 97 96 94 94 91 90 85 80 71 74 69 66 66 66 65 69 79 87 92 91 91 96 96 97
89 99 82 68 80 76 84 67 94 98 98 96 96 98 99 100 99 96 93 94 94 92 90 90 87 88 75 68 65 61 61 64 64 64 64 64 67 67 74 80 83 79 81 85
92 88 75 73 77 69 76 82 70 67 86 96 87 99 96 98 97 98 91 92 92 92 86 86 81 80 66 59 60 61 63 64 67 69 69 69 70 69 69 70 70 71 71 72
86 83 95 70 59 59 67 75 63 80 73 89 88 95 86 90 90 86 84 74 77 82 72 65 60 61 62 64 67 70 70 69 70 72 74 74 74 74 76 77 77 76 78 75
70 80 94 74 57 61 72 62 66 67 76 88 89 90 76 82 82 77 71 63 62 59 58 60 63 66 69 74 76 76 78 77 75 77 80 81 81 82 82 80 78 77 80 82
66 76 83 88 80 78 77 72 68 68 88 87 92 96 89 78 77 78 70 66 65 62 60 64 71 74 75 75 78 79 78 78 77 78 83 87 88 89 89 86 84 84 85 86
62 77 81 72 68 68 72 74 74 78 76 78 88 89 86 78 74 72 71 70 70 70 70 68 71 78 79 79 80 76 81 80 79 82 84 87 88 87 88 87 88 88 88 89
70 77 86 76 63 60 61 67 72 74 70 76 77 81 75 79 73 71 71 68 68 68 67 68 71 75 75 80 74 69 80 80 77 85 84 80 78 79 86 89 92 90 90 90
73 86 93 77 73 67 62 64 77 78 76 73 78 72 79 81 67 66 69 66 67 67 67 69 76 76 74 74 62 68 71 71 68 72 72 70 73 75 80 85 86 89 92 91
69 81 94 86 77 62 52 68 64 68 72 76 77 82 75 75 74 71 75 70 70 68 68 72 76 76 69 64 59 63 66 68 68 68 69 68 71 74 75 82 82 88 91 92
65 77 84 83 85 52 60 62 68 76 71 70 73 79 73 72 76 80 71 73 72 73 74 75 79 70 61 64 55 56 61 67 70 68 69 68 68 70 72 76 82 84 89 91
60 69 75 81 69 59 53 72 65 65 68 62 67 71 72 75 89 86 78 72 74 75 72 69 66 61 61 60 59 62 67 69 67 66 69 69 66 67 71 74 78 84 88 84
74 79 78 81 80 63 59 64 63 72 40 67 71 71 72 76 77 77 72 74 74 76 73 63 68 62 59 59 62 64 67 67 64 67 69 64 64 68 69 74 78 81 82 84
63 80 83 82 84 60 64 69 58 49 75 65 73 73 72 74 76 75 71 74 72 70 65 60 61 61 61 60 58 59 62 62 59 61 62 65 67 64 60 73 77 77 79 80
74 64 68 64 61 50 68 64 71 65 65 73 73 77 71 74 75 72 72 71 62 61 56 57 60 62 63 61 59 58 56 57 59 61 61 62 60 60 63 70 72 74 77 82
72 74 74 63 56 63 61 74 71 70 73 76 76 73 73 73 73 69 61 58 57 57 60 61 63 64 65 64 64 66 65 63 66 69 68 68 69 66 67 67 70 76 83 86
65 71 71 73 64 70 64 70 69 72 75 75 74 74 72 67 63 61 61 62 63 62 60 61 64 66 66 68 67 64 62 66 71 72 71 72 69 71 72 72 75 74 80 82
78 73 68 62 54 56 63 67 69 75 78 77 73 72 68 65 65 64 66 64 60 61 60 63 65 67 68 69 69 67 65 68 72 71 68 67 69 76 76 76 71 62 62 62

GFSCGP_sfc_rhum_093.txt.gz
RH
88 94 97 88 88 80 81 92 94 78 65 73 80 79 70 62 77 82 82 75 70 74 64 64 88 97 98 98 97 97 96 96 98 98 100 99 98 97 96 94 92 89 83 83
92 97 78 73 78 89 94 96 90 78 69 80 84 88 72 65 72 80 72 78 83 89 96 97 91 92 92 98 97 97 97 97 97 98 97 97 97 96 92 92 94 92 91 88
91 71 70 78 88 96 92 92 84 90 83 86 94 88 83 78 86 89 91 94 91 97 97 93 90 92 94 96 98 97 96 96 96 97 98 97 95 99 99 96 93 93 92 94
87 74 78 83 92 80 96 67 72 86 98 99 85 98 84 90 90 89 91 96 92 94 86 87 92 91 98 98 95 95 95 94 93 97 98 98 97 94 94 94 93 95 96 97
79 89 93 96 88 71 83 77 86 90 98 90 93 94 86 88 90 92 94 93 93 95 95 95 95 95 96 97 98 96 94 94 94 97 96 98 98 94 99 99 99 96 98 99
88 74 84 85 73 70 73 84 85 96 99 99 89 91 91 92 89 89 81 93 94 94 92 92 90 89 92 93 93 92 90 94 94 95 96 98 99 99 99 99 99 99 98 99
73 77 72 76 88 81 89 98 98 99 99 94 94 91 92 86 84 86 94 94 94 94 92 93 93 95 93 95 92 91 87 88 88 91 94 96 97 98 98 100 99 99 99 99
99 84 89 81 85 89 88 99 99 98 98 98 95 97 95 88 83 88 90 92 91 93 92 94 95 95 94 93 93 89 87 85 82 86 90 91 94 97 97 97 97 98 99 99
97 91 75 88 84 85 96 100 94 100 92 97 98 100 97 93 88 88 90 89 94 94 94 95 93 94 93 89 86 83 80 79 70 69 77 82 84 90 93 94 94 95 95 93
89 98 77 72 84 81 90 88 98 99 98 97 95 98 99 100 100 97 96 96 93 92 92 92 93 91 87 78 65 62 62 67 68 67 67 68 69 69 76 82 81 81 84 87
87 90 74 74 83 72 89 95 95 81 97 97 89 92 91 99 99 98 96 94 92 93 92 93 90 82 64 63 67 69 69 70 72 72 72 73 73 73 72 73 74 75 73 73
87 86 96 72 64 66 72 79 78 86 77 87 81 92 85 94 94 88 94 90 91 91 91 85 71 68 69 77 77 79 74 76 79 79 79 79 79 79 80 80 79 79 82 79
76 84 94 63 55 62 75 71 72 72 79 87 87 82 80 83 86 78 82 81 80 79 63 67 72 76 82 85 83 83 84 82 81 82 84 84 84 86 88 86 84 83 84 84
66 81 83 88 80 79 76 72 74 73 89 87 90 95 88 74 86 85 83 76 74 72 67 71 78 81 83 83 83 83 85 84 85 85 88 90 91 92 92 91 88 87 89 88
65 76 84 76 70 72 70 75 78 86 85 80 84 88 85 82 81 84 78 76 74 74 77 73 77 83 85 83 76 75 81 78 82 86 80 83 82 81 87 88 90 88 89 90
74 75 86 80 67 68 66 61 75 79 79 78 82 82 80 82 79 77 74 73 72 72 72 73 79 78 77 82 67 67 73 74 69 73 74 72 73 74 78 84 84 85 88 89
76 86 92 76 76 69 60 61 78 79 81 79 78 77 83 84 72 71 73 72 71 72 72 75 81 80 77 75 65 68 70 70 71 72 71 69 69 69 73 77 77 79 85 90
74 84 93 88 71 69 46 68 64 72 72 78 81 82 78 77 79 77 74 73 73 72 72 75 80 80 73 69 62 61 65 65 69 69 70 71 71 69 71 73 73 76 81 85
68 80 85 85 85 51 64 61 70 73 65 68 78 83 83 77 76 80 76 76 75 75 76 78 82 74 64 66 62 60 64 66 67 65 67 69 71 69 70 72 76 75 85 86
68 73 77 82 70 51 53 73 72 64 52 67 72 79 79 80 88 86 77 74 76 75 76 75 72 63 61 61 66 66 68 69 67 66 70 73 70 69 72 74 76 77 80 78
70 80 81 83 85 63 58 69 68 59 33 69 73 74 77 80 80 77 76 78 78 76 78 71 67 64 65 65 64 63 66 65 65 68 69 68 68 72 72 76 78 82 83 83
58 76 84 84 85 59 68 72 56 44 76 74 78 76 75 76 79 79 75 76 75 77 72 64 63 64 64 65 64 65 66 64 64 65 67 69 70 67 64 77 81 80 80 81
74 63 62 67 60 48 68 60 68 66 66 72 74 74 72 77 80 75 76 80 75 64 58 61 66 67 65 66 68 68 66 68 67 69 70 71 70 69 70 79 81 79 80 84
71 75 76 65 56 63 61 71 72 71 70 73 74 75 76 77 78 80 73 63 60 62 65 65 62 62 65 68 72 73 69 66 70 74 75 75 77 72 73 68 69 76 81 87
64 74 76 76 66 69 62 66 69 70 77 78 78 79 78 75 75 67 62 62 65 62 62 63 66 66 66 67 68 68 66 70 73 73 71 72 70 76 74 74 77 72 81 82
79 72 67 62 54 54 53 72 70 75 77 76 73 74 71 65 63 63 65 64 58 60 60 61 62 65 68 71 72 69 68 73 77 70 65 66 68 77 77 76 72 66 64 63

GFSCGP_sfc_rhum_096.txt.gz
RH
88 90 93 83 85 74 83 92 94 78 66 72 81 80 72 66 74 83 81 76 79 72 63 66 64 65 91 96 96 96 96 96 98 100 95 92 96 89 96 93 85 89 90 84
89 94 79 74 80 89 94 96 86 77 71 71 85 85 78 73 80 86 93 91 94 93 93 89 91 90 89 93 98 97 97 97 98 99 98 98 98 98 96 94 94 92 94 94
87 73 72 77 90 95 85 89 89 87 76 78 91 86 74 82 87 86 93 87 86 94 93 93 88 86 90 98 99 90 94 98 97 97 98 98 96 97 97 95 97 95 92 95
88 77 77 90 89 80 91 68 72 81 97 97 81 96 80 87 88 86 95 90 94 94 92 92 93 95 95 97 98 96 93 96 94 97 91 91 94 98 93 92 95 96 93 95
79 88 93 88 81 72 76 67 75 81 95 98 92 96 85 88 86 79 87 85 91 94 96 96 96 95 94 95 96 94 91 91 93 95 97 98 98 97 93 92 96 94 92 91
87 78 84 75 73 70 67 81 86 88 99 99 88 91 91 91 89 87 84 90 93 91 91 90 90 88 92 92 92 91 88 91 91 92 94 97 98 98 97 98 99 98 99 99
81 87 73 71 90 79 88 99 97 96 100 94 92 94 88 83 86 87 92 94 92 91 92 93 94 94 92 94 93 89 90 88 86 91 93 93 97 96 98 98 98 97 98 99
98 87 85 81 86 91 97 98 99 98 98 96 97 98 97 87 84 87 89 89 89 91 92 93 94 94 94 93 94 91 91 86 79 80 85 88 90 94 94 96 96 96 97 98
96 93 76 88 77 82 96 100 93 100 99 97 96 97 97 93 93 86 88 87 94 94 94 93 93 93 91 90 89 90 86 84 73 69 72 76 81 84 89 87 90 94 94 91
90 99 78 82 85 82 91 87 99 99 98 97 96 96 99 100 100 98 98 97 94 92 92 92 90 89 86 81 79 78 72 71 70 71 71 71 72 73 78 80 83 81 82 84
87 90 78 80 90 76 96 93 95 94 99 97 95 96 96 98 98 98 98 95 93 93 93 93 91 83 74 70 69 70 71 74 76 75 74 77 78 77 78 79 79 80 78 79
86 92 98 73 67 66 77 81 83 90 79 89 85 92 88 93 94 94 96 93 91 92 90 89 85 70 73 78 79 82 80 82 82 84 81 79 78 78 79 81 82 81 83 82
82 86 95 62 57 66 76 72 76 79 83 86 91 83 79 83 85 88 91 87 86 80 67 68 73 82 85 85 83 87 88 88 87 86 82 79 81 81 82 84 83 82 84 87
64 82 82 84 74 81 76 72 79 79 91 86 87 89 77 75 86 79 75 77 81 76 70 75 81 85 88 84 77 85 82 83 89 79 80 80 84 87 88 85 83 82 82 84
68 77 86 76 76 75 69 66 79 88 84 75 80 85 80 82 87 90 84 79 79 78 78 78 79 84 85 83 69 74 76 72 76 76 73 76 75 74 79 81 81 81 84 84
77 77 87 88 67 73 70 66 76 83 82 84 86 80 79 82 79 79 77 76 75 74 73 76 81 82 79 82 68 65 69 72 71 71 73 71 68 68 70 73 74 73 79 84
77 85 92 81 70 69 60 60 77 80 80 75 77 72 84 83 76 72 74 75 74 74 73 74 81 82 81 78 67 66 67 67 68 69 69 70 70 67 70 70 69 70 75 82
76 83 93 90 68 59 45 72 73 74 70 76 80 79 78 78 77 76 73 74 75 74 74 76 82 83 76 70 67 62 65 65 67 66 67 69 74 70 70 71 72 74 77 81
73 81 85 85 87 49 62 65 72 74 61 73 76 82 84 84 81 78 75 77 77 77 77 79 84 78 67 66 66 65 65 68 68 67 69 72 76 72 73 75 78 77 82 83
71 77 77 83 71 49 38 73 74 62 49 69 76 80 82 81 89 87 80 80 79 79 79 77 74 65 64 67 69 67 68 70 68 71 73 74 74 74 77 78 80 80 84 80
69 81 81 84 84 66 56 70 69 58 30 72 75 78 83 82 80 77 80 80 80 78 75 68 72 68 68 70 67 68 70 69 70 71 71 71 73 76 76 79 81 83 85 83
60 71 82 86 86 60 66 73 53 42 76 73 77 77 79 80 81 83 79 80 77 74 70 66 65 67 68 69 68 71 71 71 71 71 71 72 75 71 68 82 85 84 86 84
73 59 53 66 61 47 68 57 67 65 64 72 74 74 76 76 80 80 79 80 78 67 61 65 68 65 63 68 73 72 68 72 70 73 72 74 72 71 71 85 84 80 84 87
71 77 73 68 59 64 60 69 70 69 66 71 74 76 77 78 80 81 80 73 63 64 65 64 62 62 64 68 70 73 71 68 71 75 75 73 74 67 70 66 66 78 82 84
60 76 75 80 66 69 62 65 67 71 72 76 79 78 77 78 83 82 75 66 66 64 62 63 63 64 65 66 69 69 66 70 73 75 72 71 68 78 74 72 77 72 81 84
78 69 67 58 51 50 47 63 70 72 75 76 76 79 80 75 74 66 66 66 63 59 61 59 59 64 67 70 70 70 69 75 80 74 66 69 70 78 77 80 76 66 63 63

GFSCGP_sfc_rhum_099.txt.gz
RH
84 79 69 65 71 62 78 86 96 77 63 73 77 76 68 61 69 74 76 77 79 83 80 74 71 68 64 61 69 81 84 85 88 94 91 88 88 85 87 86 81 76 77 79
79 79 69 68 77 80 87 90 88 74 67 68 74 77 68 69 77 85 79 80 80 83 83 82 80 80 81 78 87 91 88 89 89 90 90 86 88 88 86 85 83 81 80 81
72 74 71 72 87 86 88 86 85 88 71 74 83 84 65 69 76 70 83 78 85 91 89 91 88 90 92 94 84 83 87 88 86 90 92 92 93 93 95 92 90 86 82 85
78 72 75 82 90 80 89 66 69 80 92 94 82 92 72 73 77 71 81 78 84 90 90 90 93 93 97 96 94 91 88 90 86 88 94 90 93 93 84 89 86 84 78 85
77 81 90 88 82 72 79 60 71 76 98 99 95 97 73 76 76 78 81 83 85 87 92 93 94 93 92 92 93 89 85 86 88 90 93 96 93 94 92 90 93 91 88 86
79 75 82 76 72 72 64 80 85 90 99 97 85 87 76 84 87 80 81 87 89 87 89 88 88 86 90 91 91 89 85 86 87 89 92 96 97 96 96 95 96 96 94 95
78 88 75 71 87 79 82 99 97 93 95 92 77 89 74 78 72 83 91 91 89 89 89 90 92 92 91 93 92 87 86 83 79 82 94 94 94 94 96 96 97 96 96 96
98 82 81 82 85 94 97 99 94 99 96 91 93 91 88 84 84 85 85 86 87 90 90 92 91 93 93 92 93 89 91 88 78 82 83 86 89 92 89 88 91 92 95 95
91 92 79 87 74 79 96 97 89 99 86 96 85 95 95 92 95 93 95 94 91 93 93 92 91 92 91 92 93 93 88 87 83 84 82 79 82 84 84 80 83 88 90 88
87 98 74 82 82 80 83 81 96 100 98 92 87 93 98 100 100 98 99 97 95 92 91 91 91 89 86 87 87 88 84 73 66 65 66 68 71 71 75 77 80 78 79 79
85 88 77 82 96 84 93 93 89 94 98 94 91 87 96 99 98 98 97 95 95 92 92 92 87 80 79 75 71 70 70 71 67 62 63 60 63 65 61 62 65 67 69 71
87 84 98 76 66 63 71 73 76 87 79 84 81 76 87 92 91 95 93 94 90 90 87 83 70 68 70 68 70 70 74 72 70 62 58 61 62 61 62 62 62 61 61 61
86 87 93 62 56 63 72 71 72 77 78 82 82 70 79 81 88 91 93 84 79 76 64 62 65 71 74 67 69 68 69 76 66 60 57 58 59 60 60 60 60 60 61 62
70 82 80 80 64 77 79 69 75 80 85 75 78 81 77 84 85 84 86 77 78 72 64 66 68 72 73 65 62 63 61 62 66 58 57 58 58 58 57 57 56 57 59 60
71 82 86 78 75 74 76 67 67 80 73 68 64 85 77 80 86 83 78 69 68 67 67 67 68 70 70 64 56 56 58 59 59 59 58 60 57 54 54 55 54 53 57 58
78 82 88 89 71 69 73 68 66 75 76 79 80 78 64 72 73 80 77 71 70 70 68 66 68 71 68 68 58 55 55 56 58 56 58 61 57 55 57 55 54 53 55 57
78 84 90 81 68 66 66 64 65 70 73 67 76 61 76 77 74 70 71 71 68 68 67 68 67 70 69 64 59 55 56 56 54 56 56 57 60 58 58 58 57 58 58 60
77 82 91 92 67 52 40 67 63 65 65 72 73 70 73 72 72 69 66 66 68 68 69 70 71 72 68 58 60 55 59 56 56 56 57 60 65 63 61 61 61 60 59 62
75 80 84 85 84 44 46 52 65 66 48 66 73 72 76 77 75 71 68 68 65 68 69 70 71 69 58 56 58 58 57 59 59 59 62 63 66 66 64 66 68 67 67 69
76 78 78 83 70 43 28 65 67 57 46 53 71 75 79 78 83 74 71 70 71 72 74 75 70 59 55 56 58 58 60 61 61 64 65 64 63 63 65 66 69 67 68 68
68 80 85 84 82 62 49 66 61 49 24 63 72 76 82 79 74 71 75 75 75 74 73 64 58 57 58 61 61 61 62 62 64 64 62 61 61 65 66 70 70 73 73 71
56 73 83 87 88 59 63 70 48 39 68 63 71 73 80 76 76 79 78 78 76 73 71 64 63 63 63 62 59 59 59 63 63 62 61 61 62 60 58 68 73 72 71 68
66 54 48 60 53 45 67 54 60 53 57 63 67 69 73 77 78 79 78 79 76 66 60 61 61 56 56 59 61 58 57 62 62 63 62 60 59 57 56 63 61 61 61 67
69 74 70 62 56 62 55 58 68 65 64 65 69 69 74 73 75 80 79 80 66 61 62 60 54 53 52 56 58 62 62 62 64 62 60 60 62 60 60 61 60 64 67 70
57 73 73 78 63 61 56 62 59 66 68 67 72 71 72 71 76 76 78 72 61 59 57 57 55 54 56 60 62 62 62 65 66 65 64 63 62 67 68 66 66 64 63 71
76 68 63 56 50 47 46 57 68 71 71 74 74 78 79 75 74 71 70 63 64 58 59 55 54 58 64 67 67 66 66 68 73 70 63 67 67 72 69 68 66 64 67 68